SCP
0 0 0 0 0 0 0 0 0 0 0 0 0 0 0 0 0 0 0 0 0 0 0 0 0 0 0 0 0 0 0 0 0 0 0 0 0 0 0 0 0 0 0 0 0 -0 0
0 0 0 0 0 0 0 0 0 0 0 0 0 0 0 0 0 0 0 0 0 0 0 0 0 0 0 0 0 0 0 0 0 0 0 0 0 0 0 0 0 0 0 0 -0 -0 0
0 0 0 0 0 0 0 0 0 0 0 0 0 0 0 0 0 0 0 0 0 0 0 0 0 0 0 0 0 0 0 0 0 0 0 0 0 0 0 0 0 -0 0 -0 -0 -0 0
0 0 0 0 0 0 0 0 0 0 0 0 0 0 0 0 0 0 0 0 0 0 0 0 0 0 0 0 0 0 -0 -0 0 0 0 0 0 0 0 0 0 0 -0 -0 -0 0 0
0 0 0 0 0 0 0 0 0 0 0 0 0 0 0 0 0 0 0 0 0 0 0 0 0 0 -0 0 0 -0 0 0 0 0 0 0 0 0 0 0 -0 -0 0 -0 0 0 0
0 0 0 0 0 0 0 0 0 0 0 0 0 0 0 0 0 0 0 0 0 0 0 0 0 0 0 0 0 0 0 0 0 0 0 -0 -0 0 -0 -0 -0 0 0 0 -0 -0 0
0 0 0 0 0 0 0 0 0 0 0 0 0 0 0 0 0 0 0 0 0 0 0 0 0 0 0 0 0 0 0 0 0 0 0 0 0 0 -0 0 0 0 0 -0 0 -0 -0
0 0 0 0 0 0 0 0 0 0 0 0 0 0 0 0 0 0 0 0 0 0 0 0 0 0 0 0 0 0 0 0 0 0 0 0 0 0 0 0 0 0 -0 0 0 0 0
0 0 0 0 0 0 0 0 0 0 0 0 0 0 0 0 0 0 0 0 0 0 0 0 0 0 0 0 0 0 0 0 0 0 0 0 0 0 0 0 0 0 0 0 -0 -0 0
0 0 0 0 0 0 0 0 0 0 0 0 0 0 0 0 0 0 0 0 0 0 0 0 0 0 0 0 0 0 0 0 0 0 0 0 0 0 0 0 0 -0 -0 -0 0 0 -0
0 0 0 0 0 0 0 0 0 0 0 0 0 0 0 0 0 0 0 0 0 0 0 0 0 0 0 0 0 0 0 0 0 0 0 0 0 0 0 0 -0 0 0 -0 -0 0 -0
0 0 0 0 0 0 0 0 0 0 0 0 0 0 0 0 0 0 0 0 0 0 0 0 0 0 0 0 0 0 0 0 0 0 0 0 0 0 0 -0 0 0 -0 -0 0 -0 -0
0 0 0 0 0 0 0 0 0 0 0 0 0 0 0 0 0 0 0 0 0 0 0 0 0 0 0 0 0 0 0 0 0 0 0 0 0 0 -0 0 -0 -0 -0 -0 -0 0 0
0 0 0 0 0 0 0 0 0 0 0 0 0 0 0 0 0 0 0 0 0 0 0 0 0 0 0 0 0 -0 0 0 0 0 0 0 0 0 -0 -0 -0 -0 0 0 0 0 0
0 -0 -0 0 0 0 0 0 0 0 0 0 0 0 0 0 0 0 0 0 0 0 0 0 0 0 0 0 0 -0 0 0 0 0 0 0 0 0 -0 -0 -0 -0 -0 0 0 0 0
-0 0 0 0 0 0 0 0 0 0 0 0 0 0 0 0 -0 0 0 0 0 0 0 0 0 0 0 0 0 0 0 0 0 0 0 0 0 0 0 -0 0 -0 0 0 0 0 -0
0 0 0 0 0 0 0 0 0 0 0 0 0 0 0 0 0 0 0 0 0 0 0 0 0 0 0 0 0 0 0 0 0 0 0 0 0 0 0 0 -0 -0 -0 0 0 0 0
0 0 0 0 0 0 0 0 0 0 0 0 0 0 0 0 0 0 -0 0 0 0 0 0 0 0 0 0 0 0 0 0 0 0 0 0 0 0 0 0 0 -0 0 0 0 0 0
0 0 0 0 0 0 0 0 0 0 0 0 0 0 -0 0 0 0 0 0 0 0 0 0 0 0 0 0 0 0 0 0 0 0 0 0 0 0 0 0 0 0 0 0 0 0 0
0 0 0 0 0 0 0 0 0 0 0 0 0 -0 0 0 0 0 -0 0 0 0 0 0 0 0 0 0 0 0 0 0 0 0 0 0 0 0 0 0 0 0 0 0 0 0 0
0 0 0 0 0 0 0 0 0 0 0 0 0 -0 0 0 0 -0 -0 -0 0 0 0 0 0 0 0 -0 0 0 0 0 0 0 0 0 0 0 0 0 0 0 0 0 0 0 0
0 0 0 0 0 0 0 0 0 0 0 0 0 0 0 0 0 0 0 0 0 -0 0 0 0 0 0 -0 -0 0 0 0 0 0 0 0 0 0 0 0 0 0 0 0 0 0 0
0 0 0 0 0 0 0 0 0 0 0 0 0 0 0 0 0 0 0 -0 -0 -0 0 0 0 0 0 -0 -0 -0 0 0 0 0 0 0 0 0 0 0 0 0 0 0 0 0 0
0 0 0 0 0 -0 0 0 0 0 0 0 0 0 0 0 -0 -0 -0 -0 -0 -0 0 0 0 0 0 -0 0 -0 -0 0 0 0 0 0 0 0 0 0 0 0 0 0 0 0 0
0 0 0 0 0 0 0 0 0 0 0 0 0 0 -0 0 0 -0 0 -0 0 0 -0 0 0 0 0 -0 -0 -0 -0 0 0 0 0 0 0 0 0 0 0 0 0 0 0 0 0
0 0 0 0 0 0 0 0 0 0 0 0 0 0 0 0 -0 -0 0 -0 -0 0 0 0 0 0 0 -0 -0 -0 0 0 0 0 0 0 0 0 0 0 0 0 0 0 0 0 0
0 0 0 0 0 0 0 0 0 0 0 0 0 0 0 0 -0 -0 -0 -0 -0 -0 -0 0 -0 0 0 0 -0 -0 -0 0 0 0 0 0 0 0 0 0 0 0 0 0 0 0 0
0 0 0 0 0 0 0 0 0 0 0 0 0 0 0 0 -0 -0 0 -0 -0 0 0 0 0 0 0 0 0 -0 -0 -0 0 0 0 0 0 0 0 0 0 0 0 0 0 0 0
0 0 0 0 0 0 0 0 0 0 0 0 0 0 0 0 0 0 -0 -0 -0 0 0 -0 0 -0 0 0 0 0 -0 -0 -0 0 0 0 0 0 0 0 0 0 0 0 -0 0 0
Wind_Speed_500mb
33 34 33 35 36 36 37 36 36 37 40 43 47 48 47 49 48 46 53 54 56 53 50 50 49 46 43 28 60 41 25 34 19 31 66 72 56 59 39 52 51 43 40 63 66 60 36
36 37 36 34 33 36 39 38 38 39 37 38 39 43 44 48 52 54 51 53 56 55 51 48 47 44 41 34 78 65 61 55 50 31 43 63 52 76 46 45 44 55 51 53 60 53 32
39 38 37 37 36 34 34 37 38 39 40 38 38 36 39 42 45 52 53 52 51 56 52 49 46 42 50 86 47 28 31 53 47 55 49 57 65 50 39 20 49 55 42 44 45 40 27
32 32 34 36 39 42 42 40 40 40 40 42 40 39 39 40 44 46 51 55 52 52 47 49 46 38 39 54 63 76 62 50 54 51 50 36 44 63 59 36 45 37 38 37 21 23 48
37 36 35 34 37 38 41 43 44 45 44 43 41 42 43 43 42 44 51 55 49 41 40 39 35 33 34 30 54 72 72 83 57 50 58 51 50 51 35 26 24 21 26 31 27 37 42
40 39 39 39 41 42 45 48 47 46 47 46 46 45 43 43 47 49 52 52 32 26 35 27 29 13 45 45 43 40 51 66 60 42 61 62 54 26 23 19 33 25 19 22 34 41 37
44 44 44 44 45 44 45 46 47 49 51 51 49 44 44 46 44 46 56 39 4 9 36 35 41 54 21 11 22 34 36 44 62 51 27 56 18 33 49 41 28 32 30 39 43 45 39
47 46 45 45 46 46 46 47 49 50 51 50 51 51 48 46 44 45 45 31 27 14 28 54 75 78 72 59 37 49 43 50 43 40 32 27 49 44 40 33 37 37 40 46 44 35 15
53 52 51 51 50 49 48 49 51 50 51 50 49 49 47 47 46 26 30 42 45 23 18 38 69 85 72 72 80 69 50 70 37 39 46 52 41 40 40 43 39 37 42 42 36 41 29
54 56 53 51 52 51 51 51 54 54 54 50 48 44 42 42 32 19 30 27 29 35 11 19 29 43 76 62 53 88 85 58 41 45 44 44 40 36 45 42 37 38 35 42 43 33 13
55 57 57 55 52 52 54 52 56 56 53 48 48 45 35 33 38 36 23 31 34 28 11 15 31 34 68 76 29 67 103 70 44 44 42 34 48 50 47 44 47 43 32 35 40 31 11
59 60 60 56 51 52 55 52 57 56 54 53 51 45 32 35 35 14 32 41 20 5 21 15 8 33 33 64 39 9 99 87 59 38 46 41 36 39 56 44 46 45 26 33 35 28 23
62 65 62 55 51 54 53 56 59 57 54 53 52 41 35 33 41 18 18 21 4 15 21 11 13 17 45 37 51 35 45 52 48 43 46 43 49 43 44 45 48 34 29 21 9 11 11
61 60 55 52 53 55 53 58 60 54 53 52 49 36 32 37 30 12 19 4 22 25 45 52 51 56 31 24 42 56 34 50 50 44 19 30 28 59 50 61 36 40 33 20 15 9 9
55 56 54 51 54 56 55 58 58 55 54 52 45 34 34 31 22 21 12 17 17 23 34 39 61 39 17 48 36 47 52 55 60 56 35 37 35 34 54 40 51 28 35 28 11 5 8
53 55 52 51 56 57 57 57 55 53 53 49 32 29 43 15 23 28 8 24 21 23 38 41 41 31 42 44 32 37 30 56 53 60 43 13 10 42 45 39 38 54 13 16 3 16 11
52 54 53 54 56 58 56 55 56 53 50 38 18 17 13 15 24 14 7 12 20 34 40 36 39 39 41 39 38 37 24 27 57 54 60 36 9 14 39 46 48 29 33 13 14 13 12
54 53 51 54 61 62 59 55 53 49 38 28 13 5 9 34 7 7 12 14 17 38 51 38 38 30 31 36 35 22 23 22 19 35 59 60 10 21 33 36 49 36 29 17 17 10 9
52 50 51 55 64 61 56 50 46 31 26 25 15 16 8 33 6 7 11 30 36 40 36 26 23 37 27 17 16 21 27 51 44 35 39 42 38 8 14 21 26 49 39 18 12 11 16
50 51 52 55 61 57 53 48 41 34 25 15 11 7 1 12 15 13 15 20 25 33 34 25 27 34 29 27 26 30 47 27 68 37 50 41 29 48 25 17 19 52 32 33 19 10 14
48 52 54 58 61 51 51 47 39 32 30 12 7 7 12 5 7 13 15 21 33 34 35 43 17 31 30 22 32 39 41 50 40 24 39 11 48 36 51 40 21 43 43 43 34 19 28
45 51 54 59 60 50 51 47 40 34 29 15 11 8 16 24 25 17 13 21 32 31 24 20 24 26 31 28 24 43 36 27 21 25 36 19 27 46 37 40 45 30 56 45 37 27 13
46 51 54 59 60 57 54 46 41 35 30 12 18 22 16 16 11 9 7 19 29 33 25 28 29 32 19 19 16 22 37 44 43 39 34 15 12 25 43 39 25 28 34 46 39 25 27
50 54 59 61 61 59 54 48 40 35 29 22 32 22 5 9 14 18 32 17 23 33 23 41 47 25 28 21 11 31 45 50 48 42 29 23 19 8 24 29 37 18 21 36 35 30 17
55 58 60 63 63 62 54 47 44 36 24 22 17 13 4 9 18 27 34 30 35 34 24 28 34 48 56 11 6 11 12 30 26 45 38 33 16 9 18 32 6 19 29 47 35 23 30
59 60 61 65 66 63 55 45 42 32 23 18 16 12 15 9 10 37 28 31 20 15 16 18 51 51 11 5 4 5 4 14 15 29 34 26 24 9 5 17 37 19 14 20 35 29 21
62 65 65 65 63 62 57 43 34 31 24 25 18 31 13 12 34 29 22 23 35 15 9 19 27 20 6 5 6 7 8 3 10 20 17 9 9 16 9 8 11 22 12 17 19 16 17
64 66 67 64 62 62 58 48 34 28 27 28 29 19 22 16 65 35 25 45 41 21 7 17 23 8 9 5 2 4 2 4 8 19 27 12 8 6 6 6 8 15 8 12 11 16 39
68 67 67 64 63 66 60 48 38 28 25 30 31 28 30 32 58 71 43 25 32 39 24 7 6 5 6 6 3 7 5 7 8 11 22 5 7 5 11 7 2 22 7 27 31 34 36
Wind_Direction_500mb
322 321 320 318 318 318 321 321 319 311 306 302 297 294 293 293 287 277 273 273 275 275 275 276 275 277 277 249 240 237 244 298 292 226 220 229 236 245 243 237 238 241 247 256 263 271 252
16 12 8 359 345 333 328 324 319 316 315 315 310 304 302 291 291 287 276 271 270 272 272 272 271 269 268 244 258 260 254 258 263 245 230 222 226 231 261 249 249 252 255 259 261 272 259
6 6 6 6 4 1 358 354 350 345 336 318 310 315 311 298 290 290 287 276 269 266 266 268 269 270 258 246 247 231 218 236 237 247 241 233 227 242 243 287 274 269 273 275 270 268 264
357 355 353 353 353 350 345 343 341 338 338 341 330 318 311 315 305 295 290 287 275 267 262 261 264 266 256 261 266 251 233 228 221 224 240 245 241 237 250 259 279 282 276 260 259 269 266
357 354 352 350 345 340 342 343 342 338 335 333 332 331 323 317 313 311 299 286 280 277 257 255 261 250 274 278 240 254 239 234 221 221 230 234 235 227 249 237 264 261 256 257 263 254 263
352 349 344 339 336 336 335 335 335 336 336 331 328 325 326 322 312 313 313 295 284 259 251 250 244 265 257 241 244 258 233 222 221 223 222 223 233 229 241 233 227 236 259 250 256 254 259
349 347 344 341 335 332 329 330 329 328 327 327 329 326 324 323 320 314 318 335 194 223 219 201 198 207 236 275 266 241 229 209 210 236 221 208 204 216 218 228 231 237 245 248 251 247 252
338 336 336 337 335 331 329 329 328 327 324 319 316 318 322 321 323 314 312 293 247 332 288 251 244 240 251 264 280 269 213 190 197 219 213 226 228 223 226 220 234 226 248 260 272 276 126
339 339 338 334 334 332 328 328 327 324 323 320 317 309 311 313 320 336 329 314 328 326 268 261 239 238 237 240 249 252 237 203 194 208 214 219 223 222 228 220 231 232 230 250 260 276 284
339 337 335 333 331 331 327 325 328 326 325 321 319 313 306 304 312 299 301 297 352 276 279 264 221 247 222 224 255 233 236 220 212 207 210 233 225 221 218 230 226 240 228 240 254 265 256
341 339 336 332 330 330 327 324 326 325 323 320 316 314 304 293 290 292 273 338 343 157 273 217 214 211 203 189 143 211 218 224 216 205 201 210 207 210 226 213 223 239 225 233 242 253 252
343 340 337 332 331 330 329 328 328 326 323 321 316 303 294 282 277 311 348 323 334 227 245 264 136 175 161 203 220 12 193 216 220 226 221 221 227 209 222 231 221 230 229 233 243 246 246
339 336 335 333 334 334 332 331 331 327 324 322 319 303 274 264 259 251 296 330 260 227 286 242 237 183 186 190 213 237 184 204 208 202 218 218 223 225 223 220 232 220 220 236 260 222 203
339 338 337 334 337 336 335 334 334 331 327 324 319 305 285 264 264 249 301 256 226 239 248 293 320 318 294 183 205 212 209 207 213 210 173 208 220 214 213 220 211 225 208 213 214 178 226
348 345 339 339 338 337 334 334 336 333 330 324 318 309 284 269 243 210 228 229 226 244 280 305 334 322 350 346 343 196 218 207 209 208 207 193 225 190 213 215 214 222 211 202 207 205 198
345 344 344 342 340 336 336 335 338 338 334 327 320 310 298 247 198 201 199 239 254 270 294 310 315 311 319 328 330 353 219 216 212 210 218 250 195 230 210 214 234 215 184 191 179 195 246
348 346 346 345 343 340 334 334 335 338 341 349 337 317 354 197 189 189 230 259 271 274 295 313 312 315 311 315 306 318 262 249 207 200 207 225 218 241 211 204 214 218 218 184 149 153 176
351 351 353 353 350 343 336 332 329 331 337 355 329 296 9 163 148 195 243 261 294 297 292 292 287 281 278 294 302 303 275 316 234 199 201 210 198 235 233 207 207 215 207 169 185 213 176
357 356 356 353 353 353 351 347 344 344 340 337 303 284 355 185 215 216 255 274 279 275 292 299 286 303 271 292 299 291 306 328 334 349 211 193 224 294 253 264 209 206 195 175 132 132 189
360 358 356 353 354 355 357 353 356 353 338 321 305 309 6 213 269 262 296 286 286 287 289 278 291 300 277 262 274 286 302 312 330 331 327 194 196 214 222 211 193 197 183 187 161 159 173
359 359 358 358 356 357 358 356 356 353 345 340 277 271 328 295 296 292 302 286 288 293 271 275 278 292 277 249 276 278 289 318 326 342 349 295 203 201 225 247 246 196 188 188 202 173 187
1 359 358 1 359 356 357 355 350 350 345 311 289 332 336 299 305 307 304 291 288 290 311 297 288 253 271 253 247 280 305 318 301 323 346 327 225 202 222 223 241 258 190 188 198 194 183
359 359 359 358 359 356 351 351 350 341 338 311 300 307 327 292 292 300 278 302 305 310 291 285 295 312 284 247 257 293 289 275 269 284 302 286 331 189 215 222 238 239 218 193 202 196 184
0 357 355 354 356 354 354 353 348 344 336 311 293 289 288 283 304 302 318 285 300 308 300 307 315 307 296 30 91 287 273 269 263 255 242 259 312 280 200 205 229 233 205 193 210 198 199
357 354 354 353 352 351 352 351 349 346 339 331 303 295 313 297 301 301 328 327 335 323 324 310 310 322 324 62 184 260 289 273 241 231 227 216 230 276 190 195 168 258 183 191 212 216 195
351 349 349 348 351 352 350 354 357 354 347 346 327 290 268 279 242 325 320 311 321 326 313 316 328 319 331 198 208 218 335 322 321 323 195 194 208 214 331 163 209 203 222 168 193 205 182
344 343 344 346 348 349 348 345 350 347 344 337 318 307 265 256 284 307 302 306 311 315 287 305 340 317 298 217 208 198 180 41 297 313 350 179 228 202 229 159 240 185 217 177 190 220 181
340 340 341 343 345 346 343 337 333 337 336 328 324 320 300 286 293 290 304 311 304 285 292 316 335 13 306 140 236 297 45 162 334 276 292 297 317 182 164 109 195 142 290 216 194 168 171
338 339 339 341 341 341 337 332 328 317 320 324 318 321 318 289 278 308 303 277 268 270 259 248 191 315 307 316 320 326 223 126 202 265 346 2 4 249 27 221 210 69 40 321 254 191 161
Wind_Speed_850mb
33 34 33 35 36 36 37 36 36 37 40 43 47 48 47 49 48 46 53 54 56 53 50 50 49 46 43 28 60 41 25 34 19 31 66 72 56 59 39 52 51 43 40 63 66 60 36
36 37 36 34 33 36 39 38 38 39 37 38 39 43 44 48 52 54 51 53 56 55 51 48 47 44 41 34 78 65 61 55 50 31 43 63 52 76 46 45 44 55 51 53 60 53 32
39 38 37 37 36 34 34 37 38 39 40 38 38 36 39 42 45 52 53 52 51 56 52 49 46 42 50 86 47 28 31 53 47 55 49 57 65 50 39 20 49 55 42 44 45 40 27
32 32 34 36 39 42 42 40 40 40 40 42 40 39 39 40 44 46 51 55 52 52 47 49 46 38 39 54 63 76 62 50 54 51 50 36 44 63 59 36 45 37 38 37 21 23 48
37 36 35 34 37 38 41 43 44 45 44 43 41 42 43 43 42 44 51 55 49 41 40 39 35 33 34 30 54 72 72 83 57 50 58 51 50 51 35 26 24 21 26 31 27 37 42
40 39 39 39 41 42 45 48 47 46 47 46 46 45 43 43 47 49 52 52 32 26 35 27 29 13 45 45 43 40 51 66 60 42 61 62 54 26 23 19 33 25 19 22 34 41 37
44 44 44 44 45 44 45 46 47 49 51 51 49 44 44 46 44 46 56 39 4 9 36 35 41 54 21 11 22 34 36 44 62 51 27 56 18 33 49 41 28 32 30 39 43 45 39
47 46 45 45 46 46 46 47 49 50 51 50 51 51 48 46 44 45 45 31 27 14 28 54 75 78 72 59 37 49 43 50 43 40 32 27 49 44 40 33 37 37 40 46 44 35 15
53 52 51 51 50 49 48 49 51 50 51 50 49 49 47 47 46 26 30 42 45 23 18 38 69 85 72 72 80 69 50 70 37 39 46 52 41 40 40 43 39 37 42 42 36 41 29
54 56 53 51 52 51 51 51 54 54 54 50 48 44 42 42 32 19 30 27 29 35 11 19 29 43 76 62 53 88 85 58 41 45 44 44 40 36 45 42 37 38 35 42 43 33 13
55 57 57 55 52 52 54 52 56 56 53 48 48 45 35 33 38 36 23 31 34 28 11 15 31 34 68 76 29 67 103 70 44 44 42 34 48 50 47 44 47 43 32 35 40 31 11
59 60 60 56 51 52 55 52 57 56 54 53 51 45 32 35 35 14 32 41 20 5 21 15 8 33 33 64 39 9 99 87 59 38 46 41 36 39 56 44 46 45 26 33 35 28 23
62 65 62 55 51 54 53 56 59 57 54 53 52 41 35 33 41 18 18 21 4 15 21 11 13 17 45 37 51 35 45 52 48 43 46 43 49 43 44 45 48 34 29 21 9 11 11
61 60 55 52 53 55 53 58 60 54 53 52 49 36 32 37 30 12 19 4 22 25 45 52 51 56 31 24 42 56 34 50 50 44 19 30 28 59 50 61 36 40 33 20 15 9 9
55 56 54 51 54 56 55 58 58 55 54 52 45 34 34 31 22 21 12 17 17 23 34 39 61 39 17 48 36 47 52 55 60 56 35 37 35 34 54 40 51 28 35 28 11 5 8
53 55 52 51 56 57 57 57 55 53 53 49 32 29 43 15 23 28 8 24 21 23 38 41 41 31 42 44 32 37 30 56 53 60 43 13 10 42 45 39 38 54 13 16 3 16 11
52 54 53 54 56 58 56 55 56 53 50 38 18 17 13 15 24 14 7 12 20 34 40 36 39 39 41 39 38 37 24 27 57 54 60 36 9 14 39 46 48 29 33 13 14 13 12
54 53 51 54 61 62 59 55 53 49 38 28 13 5 9 34 7 7 12 14 17 38 51 38 38 30 31 36 35 22 23 22 19 35 59 60 10 21 33 36 49 36 29 17 17 10 9
52 50 51 55 64 61 56 50 46 31 26 25 15 16 8 33 6 7 11 30 36 40 36 26 23 37 27 17 16 21 27 51 44 35 39 42 38 8 14 21 26 49 39 18 12 11 16
50 51 52 55 61 57 53 48 41 34 25 15 11 7 1 12 15 13 15 20 25 33 34 25 27 34 29 27 26 30 47 27 68 37 50 41 29 48 25 17 19 52 32 33 19 10 14
48 52 54 58 61 51 51 47 39 32 30 12 7 7 12 5 7 13 15 21 33 34 35 43 17 31 30 22 32 39 41 50 40 24 39 11 48 36 51 40 21 43 43 43 34 19 28
45 51 54 59 60 50 51 47 40 34 29 15 11 8 16 24 25 17 13 21 32 31 24 20 24 26 31 28 24 43 36 27 21 25 36 19 27 46 37 40 45 30 56 45 37 27 13
46 51 54 59 60 57 54 46 41 35 30 12 18 22 16 16 11 9 7 19 29 33 25 28 29 32 19 19 16 22 37 44 43 39 34 15 12 25 43 39 25 28 34 46 39 25 27
50 54 59 61 61 59 54 48 40 35 29 22 32 22 5 9 14 18 32 17 23 33 23 41 47 25 28 21 11 31 45 50 48 42 29 23 19 8 24 29 37 18 21 36 35 30 17
55 58 60 63 63 62 54 47 44 36 24 22 17 13 4 9 18 27 34 30 35 34 24 28 34 48 56 11 6 11 12 30 26 45 38 33 16 9 18 32 6 19 29 47 35 23 30
59 60 61 65 66 63 55 45 42 32 23 18 16 12 15 9 10 37 28 31 20 15 16 18 51 51 11 5 4 5 4 14 15 29 34 26 24 9 5 17 37 19 14 20 35 29 21
62 65 65 65 63 62 57 43 34 31 24 25 18 31 13 12 34 29 22 23 35 15 9 19 27 20 6 5 6 7 8 3 10 20 17 9 9 16 9 8 11 22 12 17 19 16 17
64 66 67 64 62 62 58 48 34 28 27 28 29 19 22 16 65 35 25 45 41 21 7 17 23 8 9 5 2 4 2 4 8 19 27 12 8 6 6 6 8 15 8 12 11 16 39
68 67 67 64 63 66 60 48 38 28 25 30 31 28 30 32 58 71 43 25 32 39 24 7 6 5 6 6 3 7 5 7 8 11 22 5 7 5 11 7 2 22 7 27 31 34 36
Wind_Direction_850mb
322 321 320 318 318 318 321 321 319 311 306 302 297 294 293 293 287 277 273 273 275 275 275 276 275 277 277 249 240 237 244 298 292 226 220 229 236 245 243 237 238 241 247 256 263 271 252
16 12 8 359 345 333 328 324 319 316 315 315 310 304 302 291 291 287 276 271 270 272 272 272 271 269 268 244 258 260 254 258 263 245 230 222 226 231 261 249 249 252 255 259 261 272 259
6 6 6 6 4 1 358 354 350 345 336 318 310 315 311 298 290 290 287 276 269 266 266 268 269 270 258 246 247 231 218 236 237 247 241 233 227 242 243 287 274 269 273 275 270 268 264
357 355 353 353 353 350 345 343 341 338 338 341 330 318 311 315 305 295 290 287 275 267 262 261 264 266 256 261 266 251 233 228 221 224 240 245 241 237 250 259 279 282 276 260 259 269 266
357 354 352 350 345 340 342 343 342 338 335 333 332 331 323 317 313 311 299 286 280 277 257 255 261 250 274 278 240 254 239 234 221 221 230 234 235 227 249 237 264 261 256 257 263 254 263
352 349 344 339 336 336 335 335 335 336 336 331 328 325 326 322 312 313 313 295 284 259 251 250 244 265 257 241 244 258 233 222 221 223 222 223 233 229 241 233 227 236 259 250 256 254 259
349 347 344 341 335 332 329 330 329 328 327 327 329 326 324 323 320 314 318 335 194 223 219 201 198 207 236 275 266 241 229 209 210 236 221 208 204 216 218 228 231 237 245 248 251 247 252
338 336 336 337 335 331 329 329 328 327 324 319 316 318 322 321 323 314 312 293 247 332 288 251 244 240 251 264 280 269 213 190 197 219 213 226 228 223 226 220 234 226 248 260 272 276 126
339 339 338 334 334 332 328 328 327 324 323 320 317 309 311 313 320 336 329 314 328 326 268 261 239 238 237 240 249 252 237 203 194 208 214 219 223 222 228 220 231 232 230 250 260 276 284
339 337 335 333 331 331 327 325 328 326 325 321 319 313 306 304 312 299 301 297 352 276 279 264 221 247 222 224 255 233 236 220 212 207 210 233 225 221 218 230 226 240 228 240 254 265 256
341 339 336 332 330 330 327 324 326 325 323 320 316 314 304 293 290 292 273 338 343 157 273 217 214 211 203 189 143 211 218 224 216 205 201 210 207 210 226 213 223 239 225 233 242 253 252
343 340 337 332 331 330 329 328 328 326 323 321 316 303 294 282 277 311 348 323 334 227 245 264 136 175 161 203 220 12 193 216 220 226 221 221 227 209 222 231 221 230 229 233 243 246 246
339 336 335 333 334 334 332 331 331 327 324 322 319 303 274 264 259 251 296 330 260 227 286 242 237 183 186 190 213 237 184 204 208 202 218 218 223 225 223 220 232 220 220 236 260 222 203
339 338 337 334 337 336 335 334 334 331 327 324 319 305 285 264 264 249 301 256 226 239 248 293 320 318 294 183 205 212 209 207 213 210 173 208 220 214 213 220 211 225 208 213 214 178 226
348 345 339 339 338 337 334 334 336 333 330 324 318 309 284 269 243 210 228 229 226 244 280 305 334 322 350 346 343 196 218 207 209 208 207 193 225 190 213 215 214 222 211 202 207 205 198
345 344 344 342 340 336 336 335 338 338 334 327 320 310 298 247 198 201 199 239 254 270 294 310 315 311 319 328 330 353 219 216 212 210 218 250 195 230 210 214 234 215 184 191 179 195 246
348 346 346 345 343 340 334 334 335 338 341 349 337 317 354 197 189 189 230 259 271 274 295 313 312 315 311 315 306 318 262 249 207 200 207 225 218 241 211 204 214 218 218 184 149 153 176
351 351 353 353 350 343 336 332 329 331 337 355 329 296 9 163 148 195 243 261 294 297 292 292 287 281 278 294 302 303 275 316 234 199 201 210 198 235 233 207 207 215 207 169 185 213 176
357 356 356 353 353 353 351 347 344 344 340 337 303 284 355 185 215 216 255 274 279 275 292 299 286 303 271 292 299 291 306 328 334 349 211 193 224 294 253 264 209 206 195 175 132 132 189
360 358 356 353 354 355 357 353 356 353 338 321 305 309 6 213 269 262 296 286 286 287 289 278 291 300 277 262 274 286 302 312 330 331 327 194 196 214 222 211 193 197 183 187 161 159 173
359 359 358 358 356 357 358 356 356 353 345 340 277 271 328 295 296 292 302 286 288 293 271 275 278 292 277 249 276 278 289 318 326 342 349 295 203 201 225 247 246 196 188 188 202 173 187
1 359 358 1 359 356 357 355 350 350 345 311 289 332 336 299 305 307 304 291 288 290 311 297 288 253 271 253 247 280 305 318 301 323 346 327 225 202 222 223 241 258 190 188 198 194 183
359 359 359 358 359 356 351 351 350 341 338 311 300 307 327 292 292 300 278 302 305 310 291 285 295 312 284 247 257 293 289 275 269 284 302 286 331 189 215 222 238 239 218 193 202 196 184
0 357 355 354 356 354 354 353 348 344 336 311 293 289 288 283 304 302 318 285 300 308 300 307 315 307 296 30 91 287 273 269 263 255 242 259 312 280 200 205 229 233 205 193 210 198 199
357 354 354 353 352 351 352 351 349 346 339 331 303 295 313 297 301 301 328 327 335 323 324 310 310 322 324 62 184 260 289 273 241 231 227 216 230 276 190 195 168 258 183 191 212 216 195
351 349 349 348 351 352 350 354 357 354 347 346 327 290 268 279 242 325 320 311 321 326 313 316 328 319 331 198 208 218 335 322 321 323 195 194 208 214 331 163 209 203 222 168 193 205 182
344 343 344 346 348 349 348 345 350 347 344 337 318 307 265 256 284 307 302 306 311 315 287 305 340 317 298 217 208 198 180 41 297 313 350 179 228 202 229 159 240 185 217 177 190 220 181
340 340 341 343 345 346 343 337 333 337 336 328 324 320 300 286 293 290 304 311 304 285 292 316 335 13 306 140 236 297 45 162 334 276 292 297 317 182 164 109 195 142 290 216 194 168 171
338 339 339 341 341 341 337 332 328 317 320 324 318 321 318 289 278 308 303 277 268 270 259 248 191 315 307 316 320 326 223 126 202 265 346 2 4 249 27 221 210 69 40 321 254 191 161